Wind_Speed
9 9 9 9 12 15 16 18 19 17 16 15 14 15 10 9 6 7 7 6 6 6 8 8 9 9 11 11 11 12 12 17
10 11 10 10 11 14 15 14 13 13 14 11 10 11 8 8 6 5 4 3 3 3 4 6 7 8 10 11 12 12 10 17
11 11 11 11 12 13 14 13 13 13 11 12 13 11 10 8 6 5 2 1 1 2 3 5 6 7 9 10 10 10 10 15
15 13 13 13 13 14 15 15 14 13 12 11 11 10 9 7 6 4 3 2 2 3 4 5 6 7 8 9 10 11 10 11
18 16 15 14 15 15 15 15 14 15 14 13 11 9 8 7 6 5 5 5 6 6 7 7 7 8 9 11 12 12 11 10
20 18 16 15 17 16 16 15 15 14 12 11 10 9 8 7 7 7 6 7 8 8 9 10 11 12 12 12 13 14 13 11
20 18 18 16 17 18 17 16 15 14 13 11 10 9 9 9 8 7 7 7 8 9 9 9 9 9 10 11 12 12 12 12
27 25 22 20 19 19 18 16 16 15 14 13 13 12 11 10 9 7 7 7 8 8 9 10 11 12 12 13 13 13 13 12
30 28 25 23 21 19 18 17 17 16 14 13 13 12 11 10 9 8 8 8 9 10 11 12 12 12 12 12 12 13 13 13
31 28 25 24 22 20 19 18 17 16 15 13 12 12 11 10 9 9 9 9 10 11 11 11 11 12 12 12 12 13 14 14
35 31 27 24 22 21 20 18 17 16 14 13 11 11 10 10 9 9 9 10 10 10 10 10 11 13 14 15 14 15 15 15
40 34 29 26 24 23 22 20 19 17 15 13 12 11 10 10 9 9 9 10 9 10 10 11 13 14 15 15 15 16 16 17
41 37 34 30 27 25 23 21 19 17 15 14 13 12 11 10 10 9 9 10 10 10 11 12 13 14 15 15 16 17 16 16
40 38 37 33 29 26 24 22 20 18 17 15 14 13 12 11 10 10 10 10 10 11 11 11 12 14 15 16 16 17 15 15
42 40 38 35 32 29 26 23 22 20 18 16 15 14 13 12 11 10 10 10 10 10 11 11 12 14 15 16 16 17 16 16
45 44 42 38 34 30 27 25 24 22 19 17 16 16 14 13 12 11 10 10 9 10 10 10 11 13 15 16 17 16 16 16
46 44 42 40 37 34 30 28 25 23 20 19 18 18 16 14 12 11 10 9 9 9 8 8 10 12 13 15 16 14 14 14
50 49 46 42 38 36 34 31 28 25 22 21 20 19 17 15 13 11 10 8 8 7 7 7 8 11 12 14 15 14 13 15
48 48 46 42 39 36 33 32 30 26 24 22 21 20 18 16 14 11 10 8 7 6 6 6 7 10 11 13 13 13 13 14
Wind_Direction
143 145 153 159 186 196 198 200 208 209 206 220 213 227 222 221 214 223 243 259 263 279 288 296 297 300 304 306 309 310 315 304
147 151 155 161 169 187 191 189 185 183 167 177 180 189 172 186 181 178 186 239 264 284 298 304 311 313 319 322 328 330 334 320
150 149 150 154 166 176 183 184 186 182 190 195 188 180 175 166 159 163 167 214 304 319 347 347 348 345 342 342 343 351 356 350
161 152 150 151 157 166 176 184 184 183 179 180 176 167 155 148 147 150 130 99 42 22 19 15 10 5 2 359 359 360 8 8
167 161 155 155 158 160 163 166 169 170 168 168 160 150 153 153 139 111 89 76 67 61 52 43 34 28 21 16 15 17 21 12
172 167 162 158 164 165 167 169 170 168 168 166 164 160 153 141 122 106 91 72 57 50 41 34 29 25 19 18 18 20 18 18
177 172 164 161 167 168 169 170 169 168 170 168 165 159 144 132 123 108 92 75 62 55 47 42 38 35 32 29 27 22 22 17
179 176 172 169 168 168 166 165 163 161 162 158 153 146 137 131 120 114 102 85 75 67 59 52 48 44 37 32 27 22 17 14
184 180 175 173 170 167 166 162 163 159 155 150 145 140 136 130 124 117 106 91 78 66 58 53 50 44 39 36 29 22 15 10
185 181 179 174 172 172 168 165 162 159 156 150 145 140 135 128 120 111 100 90 76 67 63 59 54 48 45 42 34 27 23 14
184 183 179 177 173 173 169 167 165 163 158 150 145 141 136 128 118 111 102 91 83 76 71 67 58 50 45 42 35 26 22 15
182 181 178 176 174 174 171 169 168 166 163 158 154 148 140 131 124 116 107 100 93 82 75 65 55 48 44 41 37 29 24 17
179 177 174 176 175 174 173 172 170 171 169 166 159 154 147 140 134 126 114 104 93 84 74 64 54 49 44 39 35 29 23 15
178 176 176 176 176 174 174 173 171 172 171 168 164 158 151 148 141 127 116 105 96 85 76 68 57 51 44 39 36 31 22 14
180 179 176 178 177 176 175 173 174 172 170 168 167 163 159 154 145 135 125 114 101 87 77 70 58 50 44 41 39 34 24 15
184 181 178 178 177 176 176 175 176 174 171 170 173 170 165 160 153 143 132 119 105 90 81 73 62 49 41 38 34 30 21 14
187 183 179 179 178 176 176 177 177 176 174 174 177 173 168 164 158 149 137 124 105 95 89 76 61 48 36 31 25 26 11 4
189 186 182 179 180 177 179 179 178 177 176 178 179 175 170 166 161 152 142 129 119 104 90 74 59 44 33 28 22 23 8 3
190 186 183 181 180 179 178 178 179 177 177 180 179 176 173 170 164 158 150 141 134 116 87 72 57 42 31 23 14 18 8 2
Height
1540 1541 1541 1543 1542 1544 1546 1547 1548 1550 1551 1554 1554 1556 1557 1557 1558 1558 1559 1559 1558 1558 1557 1556 1556 1554 1553 1551 1550 1548 1547 1543
1538 1539 1540 1542 1542 1544 1545 1546 1547 1549 1551 1553 1555 1555 1556 1557 1557 1557 1557 1557 1557 1557 1556 1555 1554 1553 1551 1549 1547 1546 1545 1540
1538 1539 1540 1541 1542 1543 1545 1547 1548 1549 1551 1552 1553 1554 1555 1556 1556 1556 1556 1556 1556 1555 1554 1553 1552 1551 1550 1548 1546 1545 1543 1539
1538 1539 1540 1541 1542 1543 1545 1546 1548 1549 1551 1552 1553 1554 1556 1556 1556 1556 1555 1555 1555 1554 1553 1552 1551 1550 1548 1547 1545 1543 1542 1541
1536 1538 1539 1541 1541 1543 1544 1546 1547 1549 1551 1552 1553 1555 1555 1555 1555 1555 1555 1555 1555 1554 1553 1552 1551 1549 1547 1545 1543 1542 1541 1541
1533 1536 1538 1539 1541 1542 1544 1546 1547 1548 1549 1551 1552 1553 1554 1555 1555 1555 1555 1555 1554 1553 1552 1551 1550 1548 1546 1545 1543 1541 1540 1540
1532 1534 1536 1538 1539 1541 1544 1546 1547 1548 1550 1551 1552 1553 1554 1555 1556 1556 1556 1556 1555 1554 1553 1552 1551 1549 1548 1546 1544 1542 1540 1539
1526 1529 1533 1536 1537 1539 1542 1544 1546 1547 1550 1550 1552 1553 1554 1555 1556 1557 1557 1556 1556 1555 1553 1552 1550 1549 1548 1546 1544 1542 1540 1538
1521 1524 1528 1532 1535 1538 1540 1543 1544 1547 1549 1550 1551 1553 1554 1555 1556 1556 1556 1555 1556 1555 1553 1552 1551 1550 1548 1546 1544 1542 1540 1539
1517 1522 1526 1529 1533 1537 1539 1541 1543 1546 1548 1549 1551 1552 1554 1555 1555 1555 1555 1555 1555 1555 1554 1553 1552 1551 1549 1546 1544 1542 1540 1538
1510 1516 1521 1526 1530 1535 1537 1540 1542 1544 1546 1547 1550 1552 1553 1554 1554 1555 1555 1555 1556 1555 1555 1554 1552 1550 1548 1546 1544 1542 1539 1537
1499 1508 1516 1522 1527 1531 1534 1538 1540 1542 1545 1546 1549 1551 1553 1554 1554 1555 1555 1555 1556 1555 1555 1554 1552 1550 1547 1546 1544 1541 1539 1537
1492 1500 1509 1518 1523 1528 1531 1535 1538 1540 1543 1545 1547 1549 1552 1553 1554 1555 1554 1555 1554 1555 1554 1554 1552 1550 1548 1545 1543 1540 1538 1536
1489 1496 1502 1511 1518 1524 1528 1532 1535 1538 1541 1543 1546 1548 1550 1551 1553 1553 1554 1554 1554 1554 1553 1554 1552 1550 1548 1545 1542 1539 1538 1536
1482 1491 1496 1505 1512 1519 1524 1528 1532 1536 1539 1542 1543 1546 1548 1550 1551 1553 1553 1554 1553 1553 1552 1553 1552 1550 1547 1544 1541 1539 1538 1535
1475 1481 1488 1498 1506 1513 1520 1524 1529 1533 1536 1539 1541 1544 1546 1549 1551 1552 1552 1552 1552 1551 1552 1552 1551 1549 1546 1542 1540 1539 1537 1535
1469 1477 1484 1492 1499 1506 1514 1520 1525 1530 1532 1536 1538 1541 1544 1547 1549 1550 1550 1550 1550 1551 1551 1551 1549 1547 1544 1541 1539 1538 1537 1534
1459 1467 1475 1484 1494 1501 1508 1514 1520 1525 1529 1532 1535 1539 1541 1543 1546 1547 1548 1549 1549 1550 1550 1549 1548 1545 1543 1541 1538 1537 1536 1532
1454 1463 1472 1479 1488 1497 1504 1510 1515 1520 1525 1528 1532 1536 1538 1541 1543 1545 1546 1547 1548 1548 1548 1547 1545 1543 1542 1540 1538 1536 1534 1531